Weather History for Olney-Noble, IL

Change the Weather History Date:

Wednesday, December 26, 2012

  Actual Average (KEVV) Record (KEVV)
Temperature  
Mean Temperature 32 °F 34 °F  
Max Temperature 35 °F 42 °F 73 °F (1942)
Min Temperature 30 °F 25 °F 3 °F (1903)
Degree Days  
Heating Degree Days 32 32  
Month to date heating degree days 752  
Since 1 July heating degree days 1613  
Cooling Degree Days 0 0  
Month to date cooling degree days 0  
Year to date cooling degree days 1397  
Moisture  
Dew Point 29 °F    
Average Humidity 88    
Maximum Humidity 100    
Minimum Humidity 75    
Precipitation  
Precipitation 0.07 in 0.11 in 1.38 in (1916)
Month to date precipitation 3.22  
Year to date precipitation 44.77  
Snow  
Snow 0.00 in 0.10 in 7.70 in (2012)
Month to date snowfall 2.5  
Since 1 July snowfall 2.8  
Snow Depth -    
Sea Level Pressure  
Sea Level Pressure 29.88 in    
Wind  
Wind Speed 17 mph (NNW)    
Max Wind Speed 23 mph    
Max Gust Speed 33 mph    
Visibility 6 miles    
Events Snow    
T = Trace of Precipitation, MM = Missing Value Source: NWS Daily Summary

Daily Weather History Graph

Daily Weather History Graph

Search for Another Location

Airport:

Trip Planner

Search our weather history database for the weather conditions in past years. The results will help you decide how hot, cold, wet, or windy it might be!

Date:

Astronomy

Dec. 26, 2012 Rise Set
Actual Time 7:09 AM CST 4:37 PM CST
Civil Twilight 6:39 AM CST 5:07 PM CST
Nautical Twilight 6:06 AM CST 5:41 PM CST
Astronomical Twilight 5:33 AM CST 6:13 PM CST
Moon 3:30 PM CST (12/26) 5:33 AM CST (12/26)
Length of Visible Light 10h 28m
Length of Day
9h 28m
Waxing Gibbous, 97% of the Moon is Illuminated
Dec 26
Waxing Gibbous
Dec 28
Full
Jan 4
Last Quarter
Jan 11
New
Jan 18
First Quarter

Hourly Weather History & Observations

Time (CST) Temp. Windchill Dew Point Humidity Pressure Visibility Wind Dir Wind Speed Gust Speed Precip Events Conditions
12:15 AM 33.8 °F 23.9 °F 26.6 °F 75% 29.86 in 10.0 mi NE 15.0 mph 25.3 mph N/A   Overcast
12:35 AM 33.8 °F 23.9 °F 26.6 °F 75% 29.86 in 10.0 mi NNE 15.0 mph 21.9 mph N/A   Overcast
12:55 AM 35.6 °F 25.5 °F 28.4 °F 75% 29.84 in 10.0 mi NNE 17.3 mph 29.9 mph N/A   Overcast
1:15 AM 35.6 °F 26.2 °F 28.4 °F 75% 29.82 in 10.0 mi NNE 15.0 mph 27.6 mph N/A   Overcast
1:35 AM 35.6 °F 24.8 °F 28.4 °F 75% 29.82 in 10.0 mi NNE 19.6 mph 25.3 mph N/A   Overcast
1:55 AM 35.6 °F 25.5 °F 28.4 °F 75% 29.82 in 10.0 mi NNE 17.3 mph 28.8 mph N/A   Overcast
2:15 AM 35.6 °F 24.5 °F 28.4 °F 75% 29.80 in 10.0 mi NNE 20.7 mph 28.8 mph N/A   Overcast
2:35 AM 33.8 °F 22.8 °F 28.4 °F 81% 29.79 in 5.0 mi NNE 18.4 mph 26.5 mph N/A Snow Light Snow
2:55 AM 33.8 °F 22.5 °F 30.2 °F 87% 29.78 in 2.5 mi NNE 19.6 mph 28.8 mph N/A Snow Light Snow
3:15 AM 33.8 °F 22.8 °F 30.2 °F 87% 29.77 in 1.5 mi NNE 18.4 mph 27.6 mph N/A Snow Light Snow
3:35 AM 32.0 °F 20.5 °F 30.2 °F 93% 29.75 in 1.5 mi North 18.4 mph 27.6 mph N/A Snow Light Snow
3:55 AM 32.0 °F 20.8 °F 30.2 °F 93% 29.74 in 1.8 mi North 17.3 mph 26.5 mph 0.01 in Snow Light Snow
4:15 AM 32.0 °F 20.5 °F 30.2 °F 93% 29.74 in 1.0 mi North 18.4 mph 27.6 mph 0.01 in Snow Light Snow
4:35 AM 32.0 °F 20.1 °F 32.0 °F 100% 29.73 in - North 19.6 mph 31.1 mph N/A   Overcast
4:55 AM 30.2 °F 17.4 °F 30.2 °F 100% 29.73 in 1.0 mi North 20.7 mph 29.9 mph 0.01 in Snow Snow
5:15 AM 30.2 °F 17.8 °F 30.2 °F 100% 29.72 in - North 19.6 mph 27.6 mph 0.02 in   Overcast
5:35 AM 30.2 °F 18.1 °F 30.2 °F 100% 29.71 in - North 18.4 mph 32.2 mph 0.03 in   Overcast
6:15 AM 30.2 °F 18.1 °F 30.2 °F 100% 29.73 in 1.5 mi North 18.4 mph 26.5 mph N/A Snow Light Snow
6:35 AM 30.2 °F 18.1 °F 30.2 °F 100% 29.72 in 1.0 mi North 18.4 mph 31.1 mph N/A Snow Light Snow
6:55 AM 30.2 °F 18.1 °F 30.2 °F 100% 29.72 in 2.0 mi North 18.4 mph 26.5 mph 0.01 in Snow Light Snow
7:15 AM 30.2 °F 17.8 °F 30.2 °F 100% 29.73 in 2.0 mi North 19.6 mph 25.3 mph 0.01 in Snow Light Snow
7:35 AM 30.2 °F 17.1 °F 30.2 °F 100% 29.73 in 1.5 mi North 21.9 mph 31.1 mph N/A Snow Light Snow
7:55 AM 30.2 °F 16.8 °F 30.2 °F 100% 29.74 in 0.5 mi North 23.0 mph 28.8 mph N/A Snow Light Snow
8:15 AM 30.2 °F 17.4 °F 30.2 °F 100% 29.75 in 0.8 mi North 20.7 mph 28.8 mph N/A Snow Light Snow
8:35 AM 30.2 °F 18.9 °F 30.2 °F 100% 29.77 in 0.8 mi North 16.1 mph 32.2 mph N/A Snow Light Snow
8:55 AM 30.2 °F 18.1 °F 30.2 °F 100% 29.77 in 1.0 mi North 18.4 mph 27.6 mph N/A Snow Light Snow
9:15 AM 30.2 °F 18.5 °F 28.4 °F 93% 29.78 in 1.2 mi North 17.3 mph 28.8 mph N/A Snow Light Snow
9:35 AM 30.2 °F 17.8 °F 28.4 °F 93% 29.79 in 1.5 mi North 19.6 mph 26.5 mph N/A Snow Light Snow
9:55 AM 32.0 °F 20.8 °F 28.4 °F 87% 29.79 in 1.5 mi North 17.3 mph 28.8 mph N/A Snow Light Snow
10:15 AM 32.0 °F 20.5 °F 28.4 °F 87% 29.80 in 1.8 mi North 18.4 mph 27.6 mph N/A Snow Light Snow
10:35 AM 32.0 °F 20.8 °F 28.4 °F 87% 29.81 in 1.8 mi North 17.3 mph 27.6 mph N/A Snow Light Snow
10:55 AM 32.0 °F 20.8 °F 30.2 °F 93% 29.82 in 1.5 mi North 17.3 mph 24.2 mph N/A Snow Light Snow
11:15 AM 32.0 °F 20.8 °F 28.4 °F 87% 29.82 in - NNW 17.3 mph 23.0 mph N/A   Overcast
11:35 AM 32.0 °F 20.5 °F 28.4 °F 87% 29.83 in 2.0 mi NNW 18.4 mph 25.3 mph N/A Snow Light Snow
11:55 AM 32.0 °F 20.5 °F 28.4 °F 87% 29.83 in 4.0 mi NNW 18.4 mph 33.4 mph N/A Snow Light Snow
12:15 PM 32.0 °F 20.1 °F 28.4 °F 87% 29.83 in 5.0 mi NNW 19.6 mph 28.8 mph N/A Snow Light Snow
12:35 PM 32.0 °F 20.1 °F 28.4 °F 87% 29.84 in 7.0 mi NNW 19.6 mph 25.3 mph N/A Snow Light Snow
12:55 PM 33.8 °F 22.2 °F 28.4 °F 81% 29.85 in 7.0 mi NNW 20.7 mph 26.5 mph N/A Snow Light Snow
1:15 PM 33.8 °F 22.5 °F 28.4 °F 81% 29.86 in 7.0 mi NNW 19.6 mph 28.8 mph N/A Snow Light Snow
1:35 PM 33.8 °F 22.5 °F 28.4 °F 81% 29.87 in 5.0 mi NNW 19.6 mph 27.6 mph N/A Snow Light Snow
1:55 PM 33.8 °F 22.8 °F 30.2 °F 87% 29.88 in 4.0 mi NNW 18.4 mph 26.5 mph N/A Snow Light Snow
2:15 PM 33.8 °F 23.5 °F 28.4 °F 81% 29.89 in 5.0 mi NNW 16.1 mph 20.7 mph N/A Snow Light Snow
2:35 PM 33.8 °F 23.2 °F 28.4 °F 81% 29.90 in 4.0 mi NNW 17.3 mph 24.2 mph N/A Snow Light Snow
2:55 PM 33.8 °F 24.8 °F 30.2 °F 87% 29.92 in 2.5 mi NNW 12.7 mph - N/A Snow Light Snow
3:15 PM - - - N/A% - - North - - N/A   Unknown
3:55 PM 33.8 °F 23.5 °F 30.2 °F 87% 29.95 in 10.0 mi NNW 16.1 mph - N/A   Unknown
4:15 PM 33.8 °F 23.5 °F 30.2 °F 87% 29.96 in 10.0 mi NW 16.1 mph - N/A   Overcast
4:35 PM 33.8 °F 23.2 °F 30.2 °F 87% 29.97 in 10.0 mi NNW 17.3 mph - N/A   Overcast
4:55 PM 33.8 °F 24.3 °F 30.2 °F 87% 29.98 in 10.0 mi NW 13.8 mph 24.2 mph N/A   Overcast
5:15 PM 33.8 °F 23.2 °F 28.4 °F 81% 29.99 in 10.0 mi NNW 17.3 mph 21.9 mph N/A   Overcast
5:35 PM 33.8 °F 23.2 °F 28.4 °F 81% 30.00 in 10.0 mi NNW 17.3 mph - N/A   Overcast
5:55 PM 33.8 °F 23.9 °F 28.4 °F 81% 30.01 in 10.0 mi NNW 15.0 mph - N/A   Overcast
6:15 PM 33.8 °F 23.9 °F 28.4 °F 81% 30.02 in 10.0 mi NNW 15.0 mph - N/A   Overcast
6:35 PM - - - N/A% - 10.0 mi NNW 11.5 mph 20.7 mph N/A   Unknown
6:55 PM 33.8 °F 24.8 °F 28.4 °F 81% 30.03 in 10.0 mi NNW 12.7 mph - N/A   Overcast
7:15 PM 33.8 °F 24.8 °F 28.4 °F 81% 30.04 in 10.0 mi NNW 12.7 mph - N/A   Overcast
7:35 PM 33.8 °F 25.3 °F 28.4 °F 81% 30.04 in 10.0 mi NW 11.5 mph - N/A   Overcast
7:55 PM 33.8 °F 24.3 °F 28.4 °F 81% 30.05 in 10.0 mi NW 13.8 mph - N/A   Overcast
8:15 PM 33.8 °F 24.3 °F 28.4 °F 81% 30.06 in 10.0 mi NW 13.8 mph - N/A   Overcast
8:35 PM 33.8 °F 25.3 °F 28.4 °F 81% 30.05 in 10.0 mi NNW 11.5 mph - N/A   Overcast
8:55 PM 33.8 °F 24.3 °F 28.4 °F 81% 30.06 in 10.0 mi NNW 13.8 mph - N/A   Overcast
9:15 PM 32.0 °F 21.6 °F 28.4 °F 87% 30.07 in 10.0 mi WNW 15.0 mph - N/A   Overcast
9:35 PM 30.2 °F 20.2 °F 28.4 °F 93% 30.08 in 10.0 mi WNW 12.7 mph - N/A   Overcast
9:55 PM 30.2 °F 20.8 °F 28.4 °F 93% 30.08 in 10.0 mi WNW 11.5 mph - N/A   Overcast
10:15 PM 30.2 °F 21.3 °F 28.4 °F 93% 30.08 in 10.0 mi NW 10.4 mph - N/A   Overcast
10:35 PM 30.2 °F 20.8 °F 28.4 °F 93% 30.08 in 10.0 mi WNW 11.5 mph - N/A   Overcast
10:55 PM 30.2 °F 21.9 °F 26.6 °F 86% 30.08 in 10.0 mi NW 9.2 mph - N/A   Overcast
11:15 PM 30.2 °F 20.8 °F 26.6 °F 86% 30.09 in 10.0 mi WNW 11.5 mph - N/A   Overcast
11:35 PM 30.2 °F 21.3 °F 26.6 °F 86% 30.09 in 10.0 mi WNW 10.4 mph - N/A   Overcast
11:55 PM 30.2 °F 20.8 °F 26.6 °F 86% 30.10 in 10.0 mi WNW 11.5 mph - N/A   Overcast